レオナード彗星

C/2017 W2 ( Leonard )

English version
Home page
Updated on April 13, 2018

---------------------------------------------------------------------

・ プロフィール

発見日 2017年11月26日
発見光度 20.2等
発見者 G. J. Leonard (Mount Lemmon)

・ 写真集

・ 軌道要素

Epoch 2017 Oct. 14.0 TT = JDT 2458040.5
T 2017 Nov. 1.89818 TT                                  MPCW
q   3.9573325            (2000.0)            P               Q
n   0.01942085     Peri.  169.15120     -0.68705679     -0.02541093
a  13.7074687      Node   312.80927     +0.57025240     +0.60048842
e   0.7113010      Incl.   98.17824     +0.45029453     -0.79922960
P  50.75
From 154 observations 2017 Nov. 26-2018 Feb. 13, mean residual 0".4.

・ 光度変化

        m1 = 10.5 + 5 logΔ + 10.0 log r

---------------------------------------------------------------------

軌道要素はM.P.E.C. 2018-F152に掲載されたものです。
光度グラフはComet for Windowsで作成したものです。

---------------------------------------------------------------------

Copyright(C) Seiichi Yoshida (comet@aerith.net). All rights reserved.